Weather in Việt Trì

Vietnam     21°18′17″N   105°24′36″E
temp.,
°C
wind,
m/s
gust,
m/s
humid.,
%
clouds,
%
prec.,
mm/h
press.,
hPa
HPBL,
m
16 june, wed
wed1601:00+27ese248697 0.1 100097
04:00+27e018799 0.0 100012
07:00+28wnw117879 0.0 1001259
10:00+32wsw2358100 0.0 10021067
13:00+35s1349100 0.0 10001528
16:00+36se334991 0.0 9981307
19:00+32se376346 0.0 1000156
22:00+29e5977100 0.0 1002367
17 june, thu
thu1701:00+28e4785100 0.1 1002325
04:00+27ene238832 0.0 1002113
07:00+29ne128195 0.0 1003372
10:00+34ssw016066 0.0 10041187
13:00+37sw244631 0.0 10011901
16:00+36se34493 0.0 9991373
19:00+32e586639 0.0 1001263
22:00+30ese597316 0.0 1004442
18 june, fri
fri1801:00+28e47817 0.0 1003294
04:00+28ne238597 0.0 100373
07:00+29e0180100 0.0 1004304
10:00+33w235799 0.0 10041130
13:00+37w244294 0.0 10022086
16:00+38w564014 0.0 9992162
19:00+33sw225491 0.0 100025
22:00+31e35705 0.0 1002151
19 june, sat
sat1901:00+29ese24775 0.0 100189
04:00+28ssw11805 0.0 100013
07:00+30w11725 0.0 1001296
10:00+34w345125 0.0 10011242
13:00+38w344062 0.0 9991999
16:00+38wsw6103821 0.0 9962083
19:00+34wsw7144572 0.0 997600
22:00+32sw49506 0.0 998252
20 june, sun
sun2001:00+30w226159 0.0 99740
04:00+29wnw226836 0.0 99723
07:00+30wnw34656 0.0 999244
10:00+35w454683 0.0 9991211
13:00+39w343741 0.0 9962156
16:00+39wsw663724 0.0 9932042
19:00+33wsw5104991 0.0 994252
22:00+32wsw385174 0.0 996190